Weather History for KACK - August, 2013

Change the Weather History Date:

Friday, August 23, 2013

  Actual Average Record
Temperature  
Mean Temperature 69 °F -  
Max Temperature 77 °F 74 °F 84 °F (1976)
Min Temperature 63 °F 60 °F 48 °F (2004)
Cooling Degree Days 4    
Growing Degree Days 19 (Base 50)    
Moisture  
Dew Point 64 °F    
Average Humidity 85    
Maximum Humidity 100    
Minimum Humidity 62    
Precipitation  
Precipitation 0.00 in - - ()
Sea Level Pressure  
Sea Level Pressure 29.91 in    
Wind  
Wind Speed 12 mph (NW)    
Max Wind Speed 26 mph    
Max Gust Speed 32 mph    
Visibility 8 miles    
Events      
Averages and records for this station are not official NWS values.
T = Trace of Precipitation, MM = Missing Value Source: NWS Daily Summary

Daily Weather History Graph

Daily Weather History Graph

Search for Another Location

Airport or City:

Trip Planner

Search our weather history database for the weather conditions in past years. The results will help you decide how hot, cold, wet, or windy it might be!

Date:

Astronomy

Aug. 23, 2013 Rise Set
Actual Time 5:57 AM EDT 7:27 PM EDT
Civil Twilight 5:28 AM EDT 7:55 PM EDT
Nautical Twilight 4:53 AM EDT 8:30 PM EDT
Astronomical Twilight 4:16 AM EDT 9:07 PM EDT
Moon 8:41 PM EDT (8/23) 8:51 AM EDT (8/23)
Length of Visible Light 14h 27m
Length of Day
13h 29m
Waning Gibbous, 91% of the Moon is Illuminated
Aug 23
Waning Gibbous
Aug 28
Last Quarter
Sep 5
New
Sep 12
First Quarter
Sep 19
Full

Hourly Weather History & Observations

Time (EDT) Temp. Dew Point Humidity Pressure Visibility Wind Dir Wind Speed Gust Speed Precip Events Conditions
12:53 AM 69.1 °F 69.1 °F 100% 29.87 in 5.0 mi SW 9.2 mph - N/A   Overcast
1:07 AM 69.8 °F 69.8 °F 100% 29.86 in 6.0 mi SW 10.4 mph - N/A   Overcast
1:44 AM 69.8 °F 69.8 °F 100% 29.86 in 7.0 mi SW 11.5 mph - N/A   Overcast
1:53 AM 70.0 °F 69.1 °F 97% 29.86 in 7.0 mi WSW 12.7 mph - N/A   Overcast
2:09 AM 69.8 °F 69.8 °F 100% 29.85 in 8.0 mi SW 12.7 mph - N/A   Overcast
2:35 AM 69.8 °F 69.8 °F 100% 29.85 in 7.0 mi WSW 11.5 mph - N/A   Overcast
2:51 AM 69.8 °F 69.8 °F 100% 29.84 in 7.0 mi WSW 11.5 mph - N/A   Overcast
2:53 AM 70.0 °F 69.1 °F 97% 29.84 in 7.0 mi WSW 10.4 mph - N/A   Overcast
3:17 AM 69.8 °F 69.8 °F 100% 29.83 in 7.0 mi WSW 10.4 mph - N/A   Overcast
3:49 AM 69.8 °F 69.8 °F 100% 29.83 in 7.0 mi WSW 11.5 mph - N/A   Overcast
3:53 AM 70.0 °F 69.1 °F 97% 29.83 in 7.0 mi SW 11.5 mph - N/A   Overcast
4:53 AM 70.0 °F 68.0 °F 93% 29.84 in 7.0 mi West 8.1 mph - N/A   Overcast
5:18 AM 69.8 °F 68.0 °F 94% 29.83 in 1.8 mi West 8.1 mph - N/A   Overcast
5:53 AM 69.1 °F 68.0 °F 96% 29.84 in 1.0 mi WNW 12.7 mph - N/A   Overcast
6:13 AM 69.8 °F 68.0 °F 94% 29.84 in 3.0 mi WNW 5.8 mph - N/A   Overcast
7:53 AM 73.0 °F 69.1 °F 87% 29.87 in 10.0 mi NW 12.7 mph - N/A   Clear
8:53 AM 73.0 °F 64.9 °F 76% 29.88 in 10.0 mi NNW 16.1 mph - N/A   Mostly Cloudy
9:53 AM 73.0 °F 64.0 °F 73% 29.90 in 10.0 mi North 13.8 mph - N/A   Mostly Cloudy
10:53 AM 75.0 °F 61.0 °F 62% 29.91 in 10.0 mi North 17.3 mph 24.2 mph N/A   Clear
11:53 AM 75.0 °F 62.1 °F 64% 29.92 in 10.0 mi NNE 20.7 mph 26.5 mph N/A   Clear
12:53 PM 72.0 °F 60.1 °F 66% 29.92 in 10.0 mi North 26.5 mph 32.2 mph N/A   Scattered Clouds
1:53 PM 71.1 °F 57.9 °F 63% 29.94 in 10.0 mi NNE 25.3 mph 32.2 mph N/A   Scattered Clouds
2:53 PM 72.0 °F 59.0 °F 64% 29.95 in 10.0 mi North 23.0 mph 28.8 mph N/A   Scattered Clouds
3:53 PM 71.1 °F 59.0 °F 66% 29.96 in 10.0 mi NNE 21.9 mph 29.9 mph N/A   Clear
4:53 PM 71.1 °F 57.9 °F 63% 29.98 in 10.0 mi NNE 18.4 mph - N/A   Clear
5:53 PM 68.0 °F 57.9 °F 70% 29.98 in 10.0 mi NE 11.5 mph - N/A   Clear
6:53 PM 64.9 °F 57.0 °F 75% 29.99 in 10.0 mi NE 11.5 mph - N/A   Clear
7:53 PM 63.0 °F 57.9 °F 84% 30.01 in 10.0 mi NE 4.6 mph - N/A   Clear
8:53 PM 63.0 °F 59.0 °F 87% 30.04 in 10.0 mi North 3.5 mph - N/A   Clear
9:53 PM 63.0 °F 59.0 °F 87% 30.04 in 10.0 mi North 3.5 mph - N/A   Clear
10:53 PM 63.0 °F 60.1 °F 90% 30.06 in 10.0 mi Calm Calm - N/A   Clear
11:53 PM 64.9 °F 59.0 °F 81% 30.08 in 10.0 mi North 5.8 mph - N/A   Clear